Location: Voyageurs National Park
(48.5020°N, 92.9292°W)
Time: 09:46:04
(UTC-05:00)

Amateur Radio Satellites - All Passes

Search period start: 23 April 2014 09:16
Search period end: 24 April 2014 09:16
Location: Voyageurs National Park, 48.5020°N, 92.9292°W

Satellite Date Start Highest point End Downlink Frequencies (MHz)
Time Altitude Azimuth
RS-15 23 Apr 09:21:19 09:32:01 49° 328° (NNW) 09:42:34 29.354 - 29.394 USB, Beacon 29.352 USB
Oscar 11 23 Apr 09:52:58 09:55:17 14° 89° (E) 09:57:35 145.825 FM, Beacon 2401.500 USB
SO-67 23 Apr 09:53:25 09:55:24 15° 297° (WNW) 09:57:22 435.3500 MHz FM
KITSAT 1 23 Apr 10:00:46 10:08:28 43° 38° (NE) 10:16:06 435.175 FM
Sapphire 23 Apr 10:02:49 10:07:45 36° 247° (WSW) 10:12:38 437.095 MHz 1200 baud AX-25 AFSK
HO-68 23 Apr 10:16:27 10:23:31 55° 101° (ESE) 10:30:32 435.675 MHz FM
Saudisat 1A 23 Apr 10:45:01 10:49:21 52° 123° (ESE) 10:53:42 436.775 MHz
PCSat 23 Apr 10:48:36 10:51:46 16° 256° (WSW) 10:54:56 145.825 MHz
JAS-2 23 Apr 10:49:55 10:51:39 12° 309° (NW) 10:53:25 435.800 - 435.900 CW/SSB, 435.910 FM
Oscar 10/S400 23 Apr 11:05:14 12:37:17 45° 231° (SW) 18:10:14 145.825 - 145.975 CW/USB, Beacon 145.810 USB
Oscar 11 23 Apr 11:27:37 11:31:59 70° 287° (WNW) 11:36:19 145.825 FM, Beacon 2401.500 USB
FUNcube-1 23 Apr 11:30:11 11:34:18 44° 99° (E) 11:38:29 145.950 - 145.970 MHz USB
RS-15 23 Apr 11:37:50 11:47:33 34° 1° (N) 11:57:15 29.354 - 29.394 USB, Beacon 29.352 USB
KITSAT 1 23 Apr 11:56:19 12:04:19 65° 241° (WSW) 12:12:15 435.175 FM
HO-68 23 Apr 12:04:33 12:10:59 37° 302° (WNW) 12:17:25 435.675 MHz FM
Saudisat 1A 23 Apr 12:25:15 12:29:12 30° 323° (NW) 12:33:08 436.775 MHz
AO-27 23 Apr 12:46:17 12:49:31 17° 56° (NE) 12:52:46 436.795 MHz FM
Oscar 19 23 Apr 12:49:26 12:53:47 29° 62° (ENE) 12:58:11 437.125 CW, 437.150 USB
ITAMSAT 1 23 Apr 12:55:22 12:58:59 20° 57° (ENE) 13:02:35 435.822 SSB
Oscar 16 23 Apr 12:58:08 13:02:46 35° 65° (ENE) 13:07:27 437.025 USB, Beacon 2401.1428
Oscar 11 23 Apr 13:07:03 13:07:22 10° 305° (NW) 13:07:40 145.825 FM, Beacon 2401.500 USB
FUNcube-1 23 Apr 13:07:11 13:10:30 22° 296° (WNW) 13:13:51 145.950 - 145.970 MHz USB
Uribyol 2 23 Apr 13:41:02 13:45:54 45° 67° (ENE) 13:50:48 436.500 FM
TMSAT-1 23 Apr 13:48:47 13:51:41 15° 54° (NE) 13:54:35 436.925 FM
JAS-1B 23 Apr 13:52:09 13:55:29 14° 50° (NE) 13:58:36 435.800 - 435.900 CW/SSB
RS-15 23 Apr 13:52:25 14:03:01 51° 34° (NNE) 14:13:44 29.354 - 29.394 USB, Beacon 29.352 USB
AO-7 23 Apr 13:52:33 13:57:04 16° 36° (NE) 14:01:36 29.400 - 29.500 MHz
KITSAT 1 23 Apr 13:54:15 13:58:08 14° 262° (W) 14:02:01 435.175 FM
AO-Echo 23 Apr 13:55:41 14:00:35 45° 68° (ENE) 14:05:22 ?
HO-68 23 Apr 13:55:58 13:56:43 10° 325° (NW) 13:57:28 435.675 MHz FM
Saudisat 1A 23 Apr 14:08:32 14:10:13 12° 346° (NNW) 14:11:53 436.775 MHz
SO-50 23 Apr 14:19:29 14:22:36 19° 113° (ESE) 14:25:44 436.795 FM
Uosat F 23 Apr 14:22:13 14:23:35 11° 51° (NE) 14:24:58 435.120 FM
AO-27 23 Apr 14:23:11 14:28:23 87° 255° (WSW) 14:33:37 436.795 MHz FM
Oscar 19 23 Apr 14:27:59 14:32:56 47° 261° (W) 14:37:56 437.125 CW, 437.150 USB
ITAMSAT 1 23 Apr 14:32:46 14:37:57 74° 256° (WSW) 14:43:09 435.822 SSB
Oscar 16 23 Apr 14:37:22 14:42:06 37° 263° (W) 14:46:54 437.025 USB, Beacon 2401.1428
Gurwin Techsat 1B 23 Apr 14:40:26 14:45:30 47° 68° (ENE) 14:50:35 435.225 FM
ISS 23 Apr 14:46:06 14:49:11 36° 146° (SE) 14:52:18 145.800 FM
Uribyol 2 23 Apr 15:21:08 15:25:34 29° 266° (W) 15:30:01 436.500 FM
OPAL 23 Apr 15:21:28 15:25:53 27° 96° (E) 15:30:16 ?
TMSAT-1 23 Apr 15:25:31 15:30:48 81° 73° (ENE) 15:36:08 436.925 FM
AO-Echo 23 Apr 15:35:08 15:39:32 28° 266° (W) 15:43:51 ?
JAS-1B 23 Apr 15:37:48 15:45:11 63° 70° (ENE) 15:51:26 435.800 - 435.900 CW/SSB
AO-7 23 Apr 15:40:09 15:48:01 51° 60° (ENE) 15:55:54 29.400 - 29.500 MHz
Saudisat 1A 23 Apr 15:50:31 15:51:49 11° 11° (N) 15:53:07 436.775 MHz
Uosat F 23 Apr 15:56:28 16:01:25 62° 71° (ENE) 16:06:23 435.120 FM
SO-50 23 Apr 15:58:14 16:02:42 67° 312° (NW) 16:07:14 436.795 FM
RS-15 23 Apr 16:05:09 16:15:56 67° 240° (WSW) 16:26:57 29.354 - 29.394 USB, Beacon 29.352 USB
AO-27 23 Apr 16:06:20 16:08:41 13° 273° (W) 16:11:03 436.795 MHz FM
ITAMSAT 1 23 Apr 16:17:11 16:18:21 11° 275° (W) 16:19:32 435.822 SSB
UOSAT-12 23 Apr 16:17:42 16:20:38 17° 111° (ESE) 16:23:37 437.025 FM, 437.400 FM
Gurwin Techsat 1B 23 Apr 16:21:11 16:25:41 28° 267° (W) 16:30:14 435.225 FM
ISS 23 Apr 16:22:29 16:25:49 63° 345° (NNW) 16:29:09 145.800 FM
OPAL 23 Apr 16:59:57 17:04:59 49° 294° (WNW) 17:10:00 ?
TMSAT-1 23 Apr 17:08:11 17:11:23 16° 272° (W) 17:14:36 436.925 FM
Hamsat 23 Apr 17:25:06 17:28:15 21° 63° (ENE) 17:31:27 145.90 MHz
Saudisat 1A 23 Apr 17:29:14 17:32:57 25° 35° (NE) 17:36:39 436.775 MHz
JAS-1B 23 Apr 17:29:56 17:36:10 28° 266° (W) 17:41:40 435.800 - 435.900 CW/SSB
AO-7 23 Apr 17:33:05 17:40:55 46° 261° (W) 17:48:49 29.400 - 29.500 MHz
JAS-2 23 Apr 17:36:37 17:39:32 15° 55° (NE) 17:42:24 435.800 - 435.900 CW/SSB, 435.910 FM
Uosat F 23 Apr 17:37:00 17:40:38 20° 269° (W) 17:44:17 435.120 FM
SO-50 23 Apr 17:40:59 17:44:07 18° 334° (NNW) 17:47:16 436.795 FM
UOSAT-12 23 Apr 17:55:38 18:00:14 77° 310° (NW) 18:04:56 437.025 FM, 437.400 FM
ISS 23 Apr 17:59:34 18:02:50 48° 5° (N) 18:06:06 145.800 FM
RS-15 23 Apr 18:19:51 18:26:02 17° 263° (W) 18:32:19 29.354 - 29.394 USB, Beacon 29.352 USB
SO-67 23 Apr 18:56:40 18:59:45 30° 69° (ENE) 19:02:51 435.3500 MHz FM
Hamsat 23 Apr 18:59:53 19:03:57 47° 261° (W) 19:08:06 145.90 MHz
HO-68 23 Apr 19:05:13 19:09:18 16° 44° (NE) 19:13:24 435.675 MHz FM
Saudisat 1A 23 Apr 19:08:33 19:12:57 64° 235° (SW) 19:17:17 436.775 MHz
JAS-2 23 Apr 19:18:26 19:24:00 87° 74° (ENE) 19:29:14 435.800 - 435.900 CW/SSB, 435.910 FM
SO-50 23 Apr 19:25:32 19:26:32 11° 359° (N) 19:27:33 436.795 FM
ISS 23 Apr 19:36:21 19:39:43 75° 205° (SSW) 19:43:03 145.800 FM
UOSAT-12 23 Apr 19:37:42 19:41:09 20° 332° (NNW) 19:44:39 437.025 FM, 437.400 FM
STRAND 1 23 Apr 19:45:22 19:50:22 53° 100° (E) 19:55:20 ?
SO-67 23 Apr 20:30:17 20:32:58 20° 267° (W) 20:35:40 435.3500 MHz FM
HO-68 23 Apr 20:48:40 20:55:39 61° 66° (ENE) 21:02:41 435.675 MHz FM
Oscar 11 23 Apr 20:51:42 20:54:44 19° 61° (ENE) 20:57:47 145.825 FM, Beacon 2401.500 USB
SO-50 23 Apr 21:06:05 21:09:01 16° 24° (NNE) 21:11:59 436.795 FM
JAS-2 23 Apr 21:07:06 21:09:50 14° 272° (W) 21:12:30 435.800 - 435.900 CW/SSB, 435.910 FM
ISS 23 Apr 21:13:52 21:15:59 16° 223° (SW) 21:18:06 145.800 FM
UOSAT-12 23 Apr 21:21:38 21:23:07 11° 356° (N) 21:24:37 437.025 FM, 437.400 FM
STRAND 1 23 Apr 21:25:09 21:29:16 25° 299° (WNW) 21:33:23 ?
MaSat-1 23 Apr 21:30:59 21:33:40 89° 301° (WNW) 21:36:10 437.345 MHz
Oscar 11 23 Apr 22:26:20 22:30:34 55° 260° (W) 22:34:51 145.825 FM, Beacon 2401.500 USB
FUNcube-1 23 Apr 22:30:34 22:34:39 56° 72° (ENE) 22:38:44 145.950 - 145.970 MHz USB
HO-68 23 Apr 22:37:34 22:43:47 32° 266° (W) 22:50:03 435.675 MHz FM
SO-50 23 Apr 22:46:02 22:50:35 54° 46° (NE) 22:55:12 436.795 FM
UOSAT-12 23 Apr 23:02:20 23:05:15 16° 21° (NNE) 23:08:09 437.025 FM, 437.400 FM
Sapphire 23 Apr 23:06:59 23:10:19 17° 105° (ESE) 23:13:39 437.095 MHz 1200 baud AX-25 AFSK
PCSat 23 Apr 23:49:21 23:54:18 38° 114° (ESE) 23:59:17 145.825 MHz
FUNcube-1 24 Apr 00:08:56 00:11:27 16° 270° (W) 00:13:59 145.950 - 145.970 MHz USB
SO-50 24 Apr 00:27:05 00:30:55 26° 245° (WSW) 00:34:46 436.795 FM
KITSAT 1 24 Apr 00:39:59 00:42:15 11° 96° (E) 00:44:31 435.175 FM
UOSAT-12 24 Apr 00:41:56 00:46:32 47° 44° (NE) 00:51:05 437.025 FM, 437.400 FM
Sapphire 24 Apr 00:47:35 00:53:01 87° 304° (NW) 00:58:29 437.095 MHz 1200 baud AX-25 AFSK
OPAL 24 Apr 01:04:26 01:06:54 14° 50° (NE) 01:09:23 ?
PCSat 24 Apr 01:32:32 01:37:41 43° 314° (NW) 01:42:52 145.825 MHz
Uribyol 2 24 Apr 01:52:12 01:53:46 11° 85° (E) 01:55:20 436.500 FM
UOSAT-12 24 Apr 02:22:25 02:26:32 30° 243° (WSW) 02:30:37 437.025 FM, 437.400 FM
KITSAT 1 24 Apr 02:28:00 02:35:51 56° 116° (ESE) 02:43:43 435.175 FM
AO-27 24 Apr 02:32:55 02:37:12 25° 93° (E) 02:41:27 436.795 MHz FM
Sapphire 24 Apr 02:32:58 02:37:13 23° 326° (NW) 02:41:30 437.095 MHz 1200 baud AX-25 AFSK
Oscar 19 24 Apr 02:35:29 02:40:32 47° 99° (E) 02:45:32 437.125 CW, 437.150 USB
OPAL 24 Apr 02:39:52 02:44:54 71° 69° (ENE) 02:50:03 ?
ITAMSAT 1 24 Apr 02:42:09 02:46:40 30° 95° (E) 02:51:11 435.822 SSB
Oscar 16 24 Apr 02:44:37 02:49:47 60° 101° (ESE) 02:54:54 437.025 USB, Beacon 2401.1428
Gurwin Techsat 1B 24 Apr 02:54:17 02:56:58 14° 86° (E) 02:59:39 435.225 FM
PCSat 24 Apr 03:19:30 03:22:34 15° 338° (NNW) 03:25:39 145.825 MHz
Uribyol 2 24 Apr 03:28:55 03:34:08 77° 104° (ESE) 03:39:19 436.500 FM
AO-Echo 24 Apr 03:37:40 03:42:27 74° 103° (ESE) 03:47:08 ?
TMSAT-1 24 Apr 03:38:06 03:42:23 24° 92° (E) 03:46:37 436.925 FM
Uosat F 24 Apr 04:01:59 04:04:33 14° 88° (E) 04:07:06 435.120 FM
AO-27 24 Apr 04:11:59 04:16:59 50° 292° (WNW) 04:21:58 436.795 MHz FM
Oscar 19 24 Apr 04:15:15 04:19:40 29° 298° (WNW) 04:24:04 437.125 CW, 437.150 USB
OPAL 24 Apr 04:20:57 04:24:21 18° 268° (W) 04:27:47 ?
Sapphire 24 Apr 04:21:17 04:22:47 11° 352° (N) 04:24:18 437.095 MHz 1200 baud AX-25 AFSK
ITAMSAT 1 24 Apr 04:21:26 04:26:19 43° 293° (WNW) 04:31:11 435.822 SSB
KITSAT 1 24 Apr 04:23:39 04:31:28 49° 319° (NW) 04:39:19 435.175 FM
Oscar 16 24 Apr 04:24:42 04:28:45 24° 300° (WNW) 04:32:48 437.025 USB, Beacon 2401.1428
RS-15 24 Apr 04:29:20 04:33:26 13° 93° (E) 04:37:30 29.354 - 29.394 USB, Beacon 29.352 USB
Gurwin Techsat 1B 24 Apr 04:32:22 04:37:43 89° 105° (ESE) 04:43:02 435.225 FM
PCSat 24 Apr 05:07:16 05:08:30 11° 5° (N) 05:09:44 145.825 MHz
JAS-1B 24 Apr 05:08:21 05:14:01 66° 103° (ESE) 05:19:57 435.800 - 435.900 CW/SSB
Uribyol 2 24 Apr 05:09:31 05:13:03 19° 303° (WNW) 05:16:35 436.500 FM
TMSAT-1 24 Apr 05:17:28 05:22:38 54° 291° (WNW) 05:27:46 436.925 FM
AO-Echo 24 Apr 05:17:40 05:20:41 17° 303° (WNW) 05:23:40 ?
STRAND 1 24 Apr 05:28:08 05:31:37 19° 57° (ENE) 05:35:07 ?
AO-7 24 Apr 05:29:31 05:37:36 52° 101° (E) 05:45:40 29.400 - 29.500 MHz
Uosat F 24 Apr 05:38:59 05:44:01 85° 286° (WNW) 05:49:01 435.120 FM
MaSat-1 24 Apr 05:49:49 05:52:42 56° 58° (ENE) 05:56:05 437.345 MHz
Sapphire 24 Apr 06:06:05 06:08:46 14° 19° (NNE) 06:11:27 437.095 MHz 1200 baud AX-25 AFSK
Gurwin Techsat 1B 24 Apr 06:13:41 06:16:59 17° 305° (NW) 06:20:18 435.225 FM
KITSAT 1 24 Apr 06:22:40 06:29:03 24° 347° (NNW) 06:35:26 435.175 FM
RS-15 24 Apr 06:32:17 06:43:08 57° 116° (ESE) 06:53:41 29.354 - 29.394 USB, Beacon 29.352 USB
Hamsat 24 Apr 06:42:13 06:45:48 24° 93° (E) 06:49:22 145.90 MHz
PCSat 24 Apr 06:50:13 06:54:11 20° 31° (NNE) 06:58:08 145.825 MHz
JAS-1B 24 Apr 07:00:02 07:04:18 22° 303° (WNW) 07:08:38 435.800 - 435.900 CW/SSB
TMSAT-1 24 Apr 07:00:38 07:01:27 10° 311° (NW) 07:02:15 436.925 FM
STRAND 1 24 Apr 07:05:10 07:10:16 75° 256° (WSW) 07:15:24 ?
Uosat F 24 Apr 07:19:21 07:22:05 15° 305° (NW) 07:24:49 435.120 FM
AO-7 24 Apr 07:22:34 07:30:20 46° 302° (WNW) 07:38:06 29.400 - 29.500 MHz
MaSat-1 24 Apr 07:30:12 07:30:49 10° 251° (WSW) 07:31:27 437.345 MHz
Sapphire 24 Apr 07:48:50 07:53:51 36° 43° (NE) 07:58:50 437.095 MHz 1200 baud AX-25 AFSK
SO-67 24 Apr 07:50:34 07:53:22 22° 94° (E) 07:56:09 435.3500 MHz FM
JAS-2 24 Apr 08:07:01 08:12:22 54° 101° (E) 08:18:18 435.800 - 435.900 CW/SSB, 435.910 FM
Hamsat 24 Apr 08:17:51 08:21:55 39° 291° (WNW) 08:26:00 145.90 MHz
KITSAT 1 24 Apr 08:20:59 08:27:32 26° 17° (NNE) 08:34:03 435.175 FM
PCSat 24 Apr 08:33:08 08:38:35 71° 53° (NE) 08:43:59 145.825 MHz
RS-15 24 Apr 08:44:40 08:55:37 57° 322° (NW) 09:06:23 29.354 - 29.394 USB, Beacon 29.352 USB
STRAND 1 24 Apr 08:49:12 08:50:21 11° 275° (W) 08:51:30 ?
